Вернуться в каталог

THORAD AGENA D DEB

АктивенLEO
NORAD 4973·DEBRIS·🇺🇸 United States

Запущен Apr 8, 1970 с Vandenberg Space Force Base

Loading…

Ближайшие Пролёты (ближайшие 24 часа)

TLE

СвежийSource: Space-Track

Эпоха: Sep 14, 2026, 21:07 UTC

1 04973U 70025GT  26257.87988625  .00000686  00000-0  43308-3 0  9993
2 04973 100.0410  52.2167 0090644 112.0155 249.0669 14.06119809852619

Отслеживайте THORAD AGENA D DEB в реальном времени с AllMySat

Download on the App Store